Regional Weather Roundup
Issued by NWS Charleston, SC

Current Version | Previous Version | Graphics & Text | Print | Product List | Glossary On
Versions: 1 2 3 4 5 6 7 8 9 10 11 12 13 14 15 16 17 18 19 20 21 22 23 24 25 26 27 28 29 30 31 32 33 34 35 36 37 38 39 40 41 42 43 44 45 46 47 48 49 50
000
ASUS42 KCHS 201512
RWRCHS

REGIONAL WEATHER ROUNDUP
NATIONAL WEATHER SERVICE CHARLESTON SC
1000 AM EST MON FEB 20 2017

NOTE: "FAIR" INDICATES FEW OR NO CLOUDS BELOW 12,000 FEET WITH NO
SIGNIFICANT WEATHER AND/OR OBSTRUCTIONS TO VISIBILITY.

NOT ALL STATIONS ARE QUALITY CONTROLLED. USE DATA WITH CAUTION...
ESPECIALLY DEWPOINT OBSERVATIONS.

SCZ027-030-031-034>040-042>050-201600-
...SOUTHEAST SOUTH CAROLINA...

CITY           SKY/WX    TMP DP  RH WIND       PRES   REMARKS
N CHARLESTON   MOSUNNY   64  45  49 VRB5      30.20R
WATERFRONT PRK   N/A     61  49  65 N5        30.18R
MOUNT PLEASANT FAIR      64  48  55 N5        30.20R
JOHNS ISLAND   FAIR      64  48  55 N7        30.20R
PINOPOLIS        N/A     57  48  72 VRB2      30.11R
MONCKS CORNER  FAIR      61  43  51 N3        30.21R
SUMMERVILLE    FAIR      61  45  55 NE6       30.22R
BEAUFORT MCAS  MOSUNNY   66  50  56 NE7       30.20R
BEAUFORT ARPT  FAIR      63  50  63 NE8       30.19S
HILTON HEAD IS SUNNY     68  52  56 E7        30.20R
WALTERBORO     SUNNY     63  45  51 NE8       30.21S
ALLENDALE      FAIR      64  45  48 NE6       30.20S

...SOUTHERN MIDLANDS AND PEE DEE...

CITY           SKY/WX    TMP DP  RH WIND       PRES   REMARKS
GEORGETOWN     FAIR      63  46  55 NE3       30.20S
KINGSTREE      FAIR      61  43  51 N5        30.22R
ORANGEBURG     SUNNY     63  44  50 NE7       30.21S
BARNWELL       FAIR      64  46  52 NE8       30.21S
AIKEN          FAIR      61  45  55 E10       30.25S
MANNING        FAIR      59  45  58 MISG      30.22R
COLUMBIA       MOSUNNY   63  45  51 NE6       30.21F
SUMTER         SUNNY     63  43  47 NE9       30.20R
FLORENCE       SUNNY     61  44  53 E8        30.21S
MYRTLE BEACH   MOSUNNY   64  45  48 NE10      30.21S
N MYRTLE BEACH MOSUNNY   64  45  49 NE8       30.19S

$$

GAZ063-065-086>088-099>101-113>116-118-119-134>141-150-201600-
...SOUTHEAST GEORGIA...

CITY           SKY/WX    TMP DP  RH WIND       PRES   REMARKS
SAVANNAH ARPT  MOSUNNY   67  48  50 NE5       30.20R
HUNTER AAF     SUNNY     68  52  55 E8        30.17R
FORT STEWART   SUNNY     66  49  55 CALM      30.17R
STATESBORO     SUNNY     64  52  64 E3        30.21R
SYLVANIA       SUNNY    N/A N/A N/A E6        30.21S
CLAXTON        FAIR      66  65  98 NE5       30.20S

...CSRA...CENTRAL AND FAR SOUTHEAST GEORGIA...

CITY           SKY/WX    TMP DP  RH WIND       PRES   REMARKS
THOMSON        SUNNY     62  51  68 E7        30.26S
AUGUSTA-BUSH   SUNNY     64  48  56 CALM      30.21S
AUGUSTA-DANIEL SUNNY     64  43  46 NE9       30.22R
SWAINSBORO     FAIR      64  48  55 E6        30.21S
VIDALIA        SUNNY     66  55  68 E6        30.20S
EASTMAN        FAIR      66  45  45 E3        30.22R
HAZLEHURST     FAIR      67  56  67 E3        30.18S
ALMA           SUNNY     69  54  58 SE5       30.18S
WAYCROSS       SUNNY     69  58  67 E3        30.18S
JESUP          FAIR      68  52  56 E6        30.19S
BAXLEY         FAIR      68  55  64 E7        30.18S
BRUNSWICK      SUNNY     70  59  68 E8        30.19S
SAINT SIMONS   SUNNY     70  51  51 E8        30.18R

$$

SCZ027-028-034-036>038-045-046-048>050-GAZ119-141-201600-
...LAKE AND SUPPLEMENTAL COASTAL OBSERVATIONS...

STATION/POSITION TIME  TEMP    WIND        PRES    WAVE   SWELL
                       AIR SEA DIR/SP/G            HT/PER HT/PER/DIR
                 (UTC) (F)     (DEG/KT/KT) (MB)    (FT/S) (FT/S/D)
WINYAH BAY       NOT AVBL
LAKE MURRAY      1420   55     300/  1/  2 1023.4
ACE BASIN NERRS  1345   58      10/  2     1022.0
FORT PULASKI     1448   61 60   80/  9/ 12 1022.6R
SAPELO ISLAND    1400   63      20/  3     1022.0

$$

ANZ835-935-AMZ111-154-330-350-352-354-370-450-454-472-201600-
...C-MAN AND BUOY OBSERVATIONS...

STATION/POSITION TIME  TEMP    WIND        PRES    WAVE   SWELL
                       AIR SEA DIR/SP/G            HT/PER HT/PER/DIR
                 (UTC) (F)     (DEG/KT/KT) (MB)    (FT/S) (FT/S/D)
BUOY 41004       1350   64 69   20/ 12/ 14 1021.4    2/ 3
BUOY 41008       1350   62 62   40/  8/  8 1021.5    1
FOLLY BEACH CMAN 1400   58      30/  7/  8 1022.2S
CAPERS NEARSHORE 1408   58 59   40/ 12/ 14 1021.7S
FRIPP NEARSHORE  1408   60 59   30/  8/ 10 1022.1R


STATION/POSITION TIME  TEMP    WIND        PRES    WAVE   SWELL
                       AIR SEA DIR/SP/G            HT/PER HT/PER/DIR
                 (UTC) (F)     (DEG/KT/KT) (MB)    (FT/S) (FT/S/D)
5E ST. MARYS GA  1430      64                N/A     1
FRYING PAN BUOY  1450   60 65   20/ 12/ 14 1021.9R   2/ 4
BUOY 41025       1450   59 64   20/ 16/ 21 1021.2R   3/ 4   2/100/ 7
CAPE LOOKOUT NC  1400   58      30/ 15/ 18 1021.0R
BUOY 41002       1450   70 71   30/ 17/ 19 1019.4R   6/ 6
BUOY 41010       NOT AVBL
ST AUGUSTINE FL  1500   64 66   20/  5/  5 1022.7R


$$



USA.gov is the U.S. government's official web portal to all federal, state and local government web resources and services.